TimeEDT,TemperatureF,Dew PointF,Humidity,Sea Level PressureIn,VisibilityMPH,Wind Direction,Wind SpeedMPH,Gust SpeedMPH,PrecipitationIn,Events,Conditions,WindDirDegrees,DateUTC
12:53 AM,82.0,71.1,69,29.96,10.0,ESE,6.9,-,N/A,,Clear,120,2013-05-01 04:53:00
1:53 AM,82.0,71.1,69,29.94,10.0,SE,6.9,-,N/A,,Partly Cloudy,130,2013-05-01 05:53:00
2:53 AM,82.0,71.1,69,29.92,10.0,SE,9.2,-,N/A,,Partly Cloudy,130,2013-05-01 06:53:00
3:53 AM,82.0,71.1,69,29.91,10.0,SSE,6.9,-,N/A,,Partly Cloudy,150,2013-05-01 07:53:00
4:53 AM,82.0,71.1,69,29.89,10.0,SE,6.9,-,N/A,,Clear,140,2013-05-01 08:53:00
5:53 AM,82.0,70.0,67,29.91,10.0,SE,5.8,-,N/A,,Clear,140,2013-05-01 09:53:00
6:53 AM,82.0,70.0,67,29.94,10.0,Variable,3.5,-,N/A,,Scattered Clouds,0,2013-05-01 10:53:00
7:53 AM,82.9,72.0,69,29.94,10.0,SE,8.1,-,N/A,,Partly Cloudy,130,2013-05-01 11:53:00
8:53 AM,84.0,71.1,65,29.94,10.0,ESE,8.1,-,N/A,,Mostly Cloudy,120,2013-05-01 12:53:00
9:53 AM,84.9,71.1,63,29.98,9.0,ESE,5.8,-,N/A,,Mostly Cloudy,120,2013-05-01 13:53:00
10:24 AM,82.4,73.4,74,29.99,2.5,South,9.2,-,0.04,Rain-Thunderstorm,Heavy Thunderstorms and Rain,170,2013-05-01 14:24:00
10:30 AM,75.2,68.0,78,29.99,0.8,South,3.5,17.3,0.13,Rain-Thunderstorm,Heavy Thunderstorms and Rain,180,2013-05-01 14:30:00
10:39 AM,75.2,66.2,73,29.99,2.5,Calm,Calm,-,0.14,Rain-Thunderstorm,Light Thunderstorms and Rain,0,2013-05-01 14:39:00
10:46 AM,75.2,68.0,78,29.99,10.0,Calm,Calm,-,0.14,Rain-Thunderstorm,Light Thunderstorms and Rain,0,2013-05-01 14:46:00
10:53 AM,78.1,69.1,74,29.99,10.0,Calm,Calm,-,0.14,Thunderstorm,Thunderstorm,0,2013-05-01 14:53:00
11:15 AM,82.4,73.4,74,29.99,10.0,ESE,5.8,-,N/A,Thunderstorm,Scattered Clouds,120,2013-05-01 15:15:00
11:24 AM,82.4,73.4,74,29.99,10.0,SE,5.8,-,N/A,,Mostly Cloudy,130,2013-05-01 15:24:00
11:53 AM,82.9,72.0,69,29.99,10.0,SSE,3.5,-,N/A,Thunderstorm,Thunderstorm,150,2013-05-01 15:53:00
12:53 PM,84.0,72.0,67,29.98,10.0,SE,3.5,-,0.01,Thunderstorm,Thunderstorm,130,2013-05-01 16:53:00
1:28 PM,82.4,71.6,70,29.96,10.0,SE,4.6,-,N/A,,Clear,130,2013-05-01 17:28:00
1:53 PM,82.0,73.0,74,29.97,8.0,SSE,4.6,-,0.01,Rain,Light Rain,150,2013-05-01 17:53:00
2:40 PM,80.6,73.4,79,29.95,6.0,SE,4.6,-,0.02,Rain-Thunderstorm,Light Rain,130,2013-05-01 18:40:00
2:53 PM,81.0,73.0,77,29.94,8.0,SE,6.9,-,0.03,Rain-Thunderstorm,Light Rain,140,2013-05-01 18:53:00
3:09 PM,80.6,71.6,74,29.94,3.0,SE,3.5,-,0.04,Rain,Heavy Rain,140,2013-05-01 19:09:00
3:15 PM,78.8,71.6,78,29.93,1.8,Calm,Calm,-,0.09,Rain,Heavy Rain,0,2013-05-01 19:15:00
3:20 PM,78.8,71.6,78,29.93,3.0,ESE,3.5,-,0.09,Rain,Light Rain,120,2013-05-01 19:20:00
3:53 PM,82.0,70.0,67,29.91,10.0,East,4.6,-,0.09,,Clear,90,2013-05-01 19:53:00
5:53 PM,82.9,71.1,67,29.91,10.0,Calm,Calm,-,0.01,,Mostly Cloudy,0,2013-05-01 21:53:00
6:43 PM,82.4,71.6,70,29.93,10.0,NNE,5.8,-,N/A,,Overcast,20,2013-05-01 22:43:00
6:53 PM,82.0,71.1,69,29.93,10.0,NNE,3.5,-,N/A,,Mostly Cloudy,30,2013-05-01 22:53:00
7:53 PM,81.0,72.0,74,29.94,10.0,Calm,Calm,-,N/A,,Overcast,0,2013-05-01 23:53:00
8:27 PM,80.6,71.6,74,29.94,10.0,Calm,Calm,-,N/A,,Scattered Clouds,0,2013-05-02 00:27:00
8:53 PM,80.1,72.0,76,29.94,10.0,Calm,Calm,-,N/A,,Clear,0,2013-05-02 00:53:00
9:28 PM,82.4,71.6,70,29.94,10.0,Calm,Calm,-,N/A,,Mostly Cloudy,0,2013-05-02 01:28:00
9:53 PM,82.0,71.1,69,29.93,10.0,ESE,4.6,-,N/A,,Mostly Cloudy,110,2013-05-02 01:53:00
10:53 PM,82.0,71.1,69,29.95,10.0,ESE,5.8,-,N/A,,Overcast,120,2013-05-02 02:53:00
11:14 PM,82.4,71.6,70,29.93,10.0,ESE,5.8,-,N/A,Thunderstorm,Overcast,110,2013-05-02 03:14:00
11:24 PM,82.4,71.6,70,29.93,10.0,ESE,5.8,-,N/A,Thunderstorm,Mostly Cloudy,110,2013-05-02 03:24:00
11:51 PM,78.8,68.0,69,29.94,2.5,NE,6.9,-,0.13,Rain-Thunderstorm,Thunderstorms and Rain,40,2013-05-02 03:51:00
11:53 PM,78.1,69.1,74,29.94,4.0,NNE,6.9,-,0.14,Rain-Thunderstorm,Thunderstorms and Rain,30,2013-05-02 03:53:00